Theta_e
297 296 295 294 294 293 292 291 291 290 290 289 289 289 288 288 288 287 286 285 284 283 282 281 281 280 279 279 278 278 278 278 278 278 277 277 277 276 276 276 276 275 275 275 275 274 274 274 274 274 274 274 274 274 274 274 274 274 275 275 275 275
296 296 295 294 293 292 292 291 290 290 289 289 289 289 288 288 287 286 285 284 283 283 282 281 280 279 279 278 278 279 279 278 278 278 277 277 276 276 275 275 275 274 274 274 274 274 274 273 273 273 273 273 273 273 273 273 273 273 273 274 274 274
296 295 294 293 292 292 291 291 290 290 289 289 289 288 288 287 286 286 284 283 283 282 281 280 279 279 278 278 278 279 278 278 278 277 277 277 276 276 275 275 274 274 273 273 273 273 272 272 272 272 272 272 272 272 272 272 272 272 272 273 273 273
295 294 293 292 291 291 291 290 290 289 289 288 288 288 287 286 286 285 284 283 282 281 280 279 279 278 278 278 278 278 278 278 277 277 276 276 275 275 275 275 274 273 272 272 272 272 271 271 271 271 271 271 271 271 271 271 271 271 272 272 272 273
295 293 292 291 291 290 290 290 289 289 289 288 288 287 286 286 285 284 283 282 281 280 279 278 278 278 278 278 278 278 278 277 277 277 276 275 275 275 274 274 273 272 272 271 271 271 270 270 270 270 270 270 270 270 270 271 271 271 271 271 272 273
293 292 292 291 290 290 290 289 289 288 288 287 287 286 285 285 284 283 282 281 280 279 278 278 278 278 278 278 278 278 278 277 277 276 276 275 274 274 274 274 273 272 271 270 270 270 270 270 270 270 270 270 270 270 270 270 270 270 271 271 272 273
291 291 291 291 290 290 289 289 288 288 287 286 286 285 285 284 283 282 281 280 279 278 278 277 277 278 278 278 278 278 277 277 276 275 275 274 273 273 274 274 273 271 270 270 270 269 270 270 270 270 270 270 270 270 270 270 270 270 271 271 272 272
291 291 291 291 290 289 289 288 288 287 286 285 285 285 283 282 282 281 280 279 278 277 277 277 277 278 278 278 277 277 277 276 275 275 274 273 273 274 274 273 272 271 270 270 269 269 269 269 269 270 270 270 270 270 270 270 270 271 271 271 271 271
291 290 290 291 290 289 288 288 287 286 285 284 284 283 282 281 280 279 279 278 277 276 276 277 277 278 277 277 277 276 276 276 275 274 274 273 274 275 274 272 271 270 269 269 269 269 269 269 270 270 270 270 270 270 270 271 271 271 271 271 271 271
291 290 290 290 289 289 288 287 286 285 284 283 282 282 281 280 279 278 278 277 276 276 276 277 277 277 277 276 276 276 276 275 274 274 274 274 275 274 273 271 270 269 269 269 269 269 269 269 270 270 270 270 270 271 271 271 271 272 272 272 272 272
292 291 290 290 289 289 287 287 286 284 283 282 281 280 279 279 278 278 277 276 276 276 276 276 277 277 276 276 275 275 275 274 274 274 274 275 274 273 272 271 270 269 269 269 269 269 269 269 270 270 270 270 271 271 272 272 273 273 273 273 273 273
292 291 290 289 289 288 287 286 285 284 282 281 280 279 278 278 277 277 276 276 276 276 276 276 276 276 276 275 275 275 274 274 274 274 274 274 273 273 272 271 269 269 269 269 269 269 269 269 269 269 270 271 272 273 273 273 273 274 274 274 274 275
292 291 290 289 289 288 287 286 284 283 281 280 278 277 277 277 277 276 275 275 275 276 276 276 276 275 275 274 274 274 274 273 274 274 274 273 273 272 271 269 269 269 269 269 269 269 269 269 269 269 271 272 273 273 273 274 274 275 275 275 275 276
293 291 290 289 289 288 287 285 283 282 280 278 277 276 276 276 276 275 275 275 275 276 276 275 275 275 274 274 274 274 273 273 274 274 273 272 271 271 270 269 268 268 268 268 268 268 268 268 269 270 271 272 273 273 274 275 275 275 276 276 276 276
293 291 290 290 289 288 286 284 282 281 279 278 276 275 275 275 275 275 274 274 275 275 275 275 274 274 274 274 274 273 273 273 274 273 272 271 270 269 269 268 268 268 268 268 268 268 268 268 268 270 271 272 273 274 275 275 275 276 275 276 276 276
294 292 291 290 289 287 285 284 282 280 279 277 276 275 275 274 274 274 274 274 275 275 274 274 274 273 273 273 273 272 273 273 273 272 271 270 269 268 268 268 268 267 267 267 267 267 267 268 269 270 271 272 273 274 275 275 275 275 275 275 275 275
294 292 291 290 288 286 284 282 281 279 277 276 275 274 274 274 273 273 274 274 274 274 274 273 273 273 273 272 272 272 272 272 271 270 270 269 268 267 267 267 267 267 267 267 267 267 267 268 269 270 271 272 273 274 275 275 275 275 275 275 275 275
294 292 290 289 287 285 283 281 280 278 276 274 274 273 273 273 272 272 273 273 273 273 273 273 273 273 272 271 271 272 272 270 269 269 268 267 267 267 266 266 266 266 266 266 266 267 267 268 269 270 272 273 273 274 275 275 275 275 275 275 275 275
294 292 290 288 285 283 281 280 278 276 274 273 272 272 272 272 271 272 272 272 273 273 273 273 273 272 271 271 271 271 270 269 269 268 267 267 267 266 266 266 266 266 266 266 266 267 267 268 269 271 272 272 273 274 274 274 275 274 275 275 275 275
293 291 288 286 283 281 280 278 277 275 273 272 271 271 271 271 271 271 272 273 273 273 272 272 272 271 271 271 271 270 269 269 268 267 267 266 266 266 265 265 265 266 266 266 267 267 268 268 269 271 272 272 273 274 274 274 274 274 275 275 275 275
289 288 285 283 281 279 278 277 276 274 272 271 270 270 270 270 271 272 273 273 273 272 272 272 271 270 270 270 270 269 269 269 268 268 267 266 265 265 265 264 265 265 266 266 267 267 268 269 270 270 271 272 273 274 274 274 275 275 275 275 275 275
286 284 282 281 279 278 277 276 275 273 271 270 270 270 270 271 272 273 273 273 272 272 272 271 270 270 270 269 268 268 269 269 268 268 268 267 265 264 264 264 265 265 266 267 267 268 269 269 270 270 271 272 273 274 274 274 275 275 275 275 275 275
284 283 282 280 278 276 275 274 273 272 271 270 270 270 271 272 273 273 272 272 271 271 271 270 269 270 270 268 268 268 268 268 268 268 267 266 265 265 264 264 265 265 266 267 268 268 269 270 270 270 271 272 273 273 274 275 275 275 275 275 275 275
283 282 280 278 275 274 274 273 272 271 270 270 270 271 272 272 272 272 271 271 271 270 269 268 268 269 268 268 268 268 268 268 268 267 267 266 265 264 264 264 265 266 267 268 268 269 269 270 270 270 270 271 272 273 274 275 275 275 275 274 274 274
282 280 277 275 273 273 273 273 272 271 270 270 271 271 271 271 271 271 271 270 270 269 268 267 267 267 267 267 268 269 269 268 268 267 266 265 264 264 264 265 266 266 267 268 269 269 269 269 269 270 270 271 272 273 274 274 275 275 274 274 273 273
280 277 274 272 272 271 272 273 272 270 270 271 271 270 271 270 270 270 270 270 269 268 267 267 267 267 266 267 268 269 269 268 268 267 266 265 264 264 265 265 266 267 268 269 269 269 269 269 269 269 270 271 272 273 274 274 274 274 273 273 273 273
277 274 271 271 270 270 271 272 272 271 270 271 270 270 270 270 270 270 269 268 268 266 266 266 266 266 266 267 268 268 268 268 268 266 265 264 264 264 265 266 267 268 268 269 269 269 269 269 269 269 270 271 272 273 273 273 273 273 272 272 272 272
274 272 271 270 269 270 271 272 273 272 271 270 269 270 270 270 269 269 268 268 266 265 266 266 265 265 266 267 268 268 268 267 267 266 264 263 264 264 265 266 267 268 269 269 269 269 269 269 269 270 270 272 272 272 272 272 272 271 271 271 271 272
273 272 271 269 269 269 270 271 272 272 271 269 269 270 270 270 269 268 267 266 265 265 266 266 265 265 266 267 267 267 267 267 266 265 264 264 264 265 266 267 268 268 268 268 269 269 269 269 269 270 271 272 272 272 272 272 271 270 270 270 271 271
274 272 271 269 269 269 269 270 271 270 269 269 269 270 269 269 268 268 267 265 265 265 266 266 265 266 267 267 267 267 266 266 265 264 264 264 264 265 266 267 268 268 268 268 268 268 269 269 269 270 271 272 272 272 272 271 270 270 270 270 271 270
274 272 270 269 268 268 268 269 269 268 267 268 269 270 269 267 267 267 266 264 264 265 265 266 266 267 268 268 267 267 266 266 266 265 264 264 265 266 267 268 268 268 268 268 268 268 269 269 270 271 272 272 272 272 271 271 270 270 270 270 270 269
272 271 270 269 268 268 268 267 267 266 266 267 269 269 269 267 266 265 264 264 265 265 266 266 266 267 268 268 267 267 266 266 266 265 265 265 265 266 267 268 268 268 268 268 268 268 269 269 270 271 271 271 271 271 271 270 270 269 270 270 269 268
272 271 269 268 267 267 266 265 265 264 266 267 268 269 269 268 266 263 263 264 265 266 266 267 267 267 267 267 267 267 266 266 266 266 265 265 265 265 266 266 267 267 267 268 268 268 268 269 270 270 270 271 270 270 270 269 268 269 269 269 268 267
271 270 269 267 266 266 265 264 264 264 266 267 268 268 269 269 267 265 264 265 266 266 266 267 267 267 267 267 267 267 267 266 266 265 265 265 265 265 265 265 266 266 266 267 267 268 268 269 270 270 270 270 270 270 269 268 267 267 268 267 267 266
271 269 268 266 265 265 264 263 262 264 266 268 268 268 269 269 268 267 265 265 265 266 266 266 266 266 266 266 266 266 266 266 265 264 264 266 267 266 265 265 265 266 266 266 266 267 267 268 269 269 269 269 269 269 268 267 265 266 266 266 265 265
270 268 267 266 265 264 263 262 262 265 267 268 268 268 268 268 269 268 267 267 266 266 266 266 266 266 266 266 265 265 265 264 263 262 262 263 265 266 266 266 265 266 266 266 265 265 266 267 268 268 268 268 268 268 267 265 264 264 265 265 264 265
269 268 266 265 264 264 263 262 263 265 267 267 267 267 267 267 268 268 267 267 267 266 266 265 265 265 265 265 264 264 263 262 262 261 259 259 259 260 261 263 264 265 265 264 264 264 265 266 267 267 267 267 267 266 265 263 263 263 263 263 263 264
268 267 265 264 264 263 263 262 263 265 266 267 267 266 266 266 266 266 266 265 266 266 266 265 265 265 265 264 264 263 262 261 260 259 258 257 257 257 257 259 261 263 264 264 264 264 265 265 265 265 265 265 265 264 263 262 262 262 262 262 262 263
Wind_Speed
13 16 19 21 23 25 26 28 36 41 43 45 43 41 42 40 37 35 31 28 26 23 22 21 21 20 18 17 15 14 13 13 12 13 14 15 15 16 16 17 17 17 18 16 15 16 17 19 20 20 20 20 21 22 22 22 22 24 26 24 24 25
13 17 18 20 21 22 23 28 36 40 41 43 42 40 39 38 37 34 30 27 25 23 22 21 20 19 17 15 14 13 12 11 12 12 14 15 16 16 16 17 17 16 17 16 16 17 18 19 20 19 19 20 21 21 22 22 22 24 25 25 24 24
12 15 16 16 18 19 23 30 34 36 38 41 41 39 38 37 35 32 29 26 25 23 22 20 19 17 16 14 12 12 11 11 11 12 14 15 16 16 17 18 18 18 19 18 18 19 18 19 20 19 19 19 21 21 22 23 23 24 25 25 25 25
10 13 14 15 18 19 23 28 31 33 37 40 39 39 39 37 35 32 29 26 25 23 22 20 18 16 14 12 11 10 10 10 11 12 14 15 15 16 17 18 19 20 20 19 20 19 18 19 20 19 19 20 21 22 22 22 22 24 25 25 25 26
8 11 14 16 18 20 22 26 29 31 36 39 39 39 38 36 34 31 28 26 25 23 21 19 17 15 13 11 10 10 9 10 11 12 13 14 15 16 17 19 19 21 20 19 19 19 18 19 19 19 19 20 22 23 23 23 23 24 25 25 27 29
7 9 12 15 18 19 21 24 26 28 33 38 39 38 37 35 33 31 28 26 24 22 20 18 16 14 12 11 10 9 9 10 11 12 13 14 15 16 18 19 20 20 19 18 18 19 19 19 19 19 20 20 22 23 24 24 24 25 25 26 29 30
9 10 11 15 18 19 21 23 24 27 32 37 38 37 36 34 32 30 28 26 23 21 19 18 16 14 12 11 10 9 10 10 10 11 13 14 14 16 18 19 20 19 18 18 18 19 20 20 20 20 21 21 22 23 25 25 25 25 26 27 29 29
10 10 11 15 18 19 21 23 24 26 29 33 37 37 36 33 31 29 27 25 23 21 19 18 16 14 13 11 10 9 9 9 10 11 12 13 15 16 18 19 19 19 19 19 19 20 21 21 20 20 21 21 23 24 24 25 25 27 29 30 29 29
12 13 13 15 18 19 21 23 25 26 28 31 35 36 35 33 30 29 27 25 23 21 20 19 17 15 13 11 10 9 9 9 10 11 12 13 15 16 17 18 19 19 19 19 20 20 21 21 21 21 21 22 23 23 24 26 28 29 30 31 31 31
13 14 13 15 18 19 21 22 24 26 28 31 34 35 34 32 31 29 27 25 24 22 21 19 17 15 12 11 9 8 8 8 10 11 12 13 15 16 16 17 19 19 19 19 20 20 20 20 21 21 21 22 22 24 26 27 28 30 30 31 32 32
13 14 14 15 18 20 22 22 23 24 27 31 33 34 33 32 31 30 28 26 24 22 21 19 17 14 12 11 9 8 8 8 10 10 12 13 14 15 16 17 18 18 18 18 19 19 20 20 21 21 20 22 23 25 26 26 26 28 30 32 33 33
14 14 14 15 18 22 23 23 24 25 26 30 33 33 33 33 32 30 28 26 24 22 21 18 16 14 12 11 9 8 8 8 9 10 11 12 13 15 17 17 17 17 17 17 18 19 19 19 21 22 22 24 26 27 29 28 28 28 29 32 34 35
13 13 15 16 19 23 24 23 24 25 26 30 33 33 33 33 32 30 28 26 24 23 21 18 16 14 12 11 9 8 8 8 8 9 10 11 14 15 16 16 17 16 16 17 18 19 20 21 24 25 25 26 28 29 30 32 31 30 30 32 33 34
14 15 16 17 20 23 23 24 25 25 26 30 33 33 33 33 32 30 28 26 24 23 21 18 17 15 12 11 9 8 7 7 7 7 9 11 13 14 15 16 17 17 17 17 18 19 20 23 27 27 26 28 30 30 31 32 32 31 31 33 33 34
13 15 16 17 21 24 26 29 28 27 29 33 34 35 35 33 32 31 28 26 25 24 21 19 17 14 12 10 8 7 6 6 5 6 9 11 13 14 15 17 17 18 18 17 18 20 22 25 28 27 27 30 31 31 32 32 31 31 33 33 34 35
11 14 16 17 20 23 27 32 32 30 33 36 36 36 36 34 32 30 29 27 26 24 21 19 17 14 12 10 8 7 6 4 4 6 8 10 12 13 15 17 18 18 19 19 20 22 24 27 29 28 29 31 31 32 33 31 30 31 33 33 34 35
11 11 13 17 22 26 29 33 34 34 36 37 37 37 36 35 32 30 29 28 26 24 21 19 17 15 12 10 9 7 4 2 3 6 8 10 12 13 14 16 17 19 20 20 21 23 25 28 29 28 29 30 32 33 33 30 29 30 31 32 34 35
12 13 16 20 26 31 32 34 37 38 37 37 37 36 35 33 31 29 28 28 26 24 22 19 17 15 13 11 9 5 2 1 3 5 7 9 12 13 14 16 17 20 20 20 22 25 29 29 27 26 28 30 31 33 31 29 29 30 31 33 34 35
15 17 21 26 30 33 35 37 40 40 37 35 35 34 33 32 31 30 29 28 27 25 22 20 18 16 14 11 8 4 2 1 3 5 6 9 12 13 15 16 17 18 18 20 23 27 29 29 26 25 28 29 31 32 31 29 29 29 31 33 34 35
17 20 25 29 31 35 39 41 42 41 37 34 34 33 32 31 31 31 30 29 27 24 22 20 18 16 14 11 7 4 2 1 3 5 7 9 12 13 15 16 16 16 18 22 26 26 26 26 25 25 27 28 30 32 30 29 30 30 30 33 35 35
18 21 26 30 31 35 40 43 45 43 38 35 35 33 32 32 33 33 31 29 27 24 22 20 18 16 13 9 7 5 2 1 3 5 7 9 11 13 14 14 14 16 19 23 24 23 23 24 24 24 26 28 31 31 29 28 30 30 30 31 34 35
21 20 24 32 36 40 45 47 46 43 39 37 35 33 34 36 35 33 31 28 26 24 21 19 17 14 11 9 7 5 2 1 3 6 8 9 10 12 13 13 14 16 18 19 20 20 20 21 23 25 26 29 31 32 30 29 29 30 30 31 33 35
30 29 32 40 43 44 48 50 46 42 40 37 33 34 37 37 35 32 30 28 26 23 21 18 16 13 10 8 7 4 2 2 3 6 7 9 10 11 13 14 14 15 16 16 18 18 18 19 23 25 27 28 31 32 32 31 30 31 32 33 34 35
24 28 32 39 45 48 51 52 47 42 39 35 33 36 38 36 34 32 30 28 25 23 20 18 15 13 10 8 6 4 2 2 4 5 6 8 10 11 13 13 12 13 16 17 16 16 17 19 21 24 27 29 31 33 34 32 32 33 33 34 35 34
12 20 28 37 45 49 52 52 46 42 37 33 34 38 36 34 34 33 30 28 25 22 20 17 15 12 10 8 6 4 2 2 4 5 6 8 8 9 10 10 11 13 15 15 15 15 17 19 20 23 26 29 31 33 34 33 34 35 34 33 34 34
9 18 28 37 44 46 50 53 48 41 35 33 36 38 36 35 35 32 30 28 25 22 20 17 15 12 10 9 6 4 3 2 3 4 6 7 6 6 7 9 11 13 14 15 16 17 18 19 21 23 26 29 31 33 34 34 36 36 35 34 33 33
19 20 23 31 40 44 48 52 50 42 35 36 40 41 39 37 35 32 30 28 25 23 21 18 15 13 10 9 7 5 4 2 3 5 6 6 4 4 7 9 11 12 13 15 17 18 20 20 22 23 25 28 31 33 33 34 36 37 37 35 33 32
25 19 16 23 35 40 42 48 49 43 38 40 43 42 41 39 36 33 31 28 25 23 21 18 16 13 11 9 7 6 4 3 4 5 5 4 3 4 7 9 10 11 13 15 17 18 20 21 22 23 25 28 30 32 33 34 35 35 36 34 32 33
15 13 12 17 29 38 39 40 41 40 41 43 43 42 41 40 37 34 31 28 26 24 21 19 17 15 13 10 8 7 6 4 4 4 3 2 3 5 7 9 10 11 13 15 16 17 19 20 22 23 26 30 32 33 33 34 33 33 33 32 32 34
12 15 13 16 28 39 39 35 34 36 41 44 43 42 42 39 37 35 32 29 27 25 21 19 18 15 14 12 9 8 6 5 4 3 2 1 3 6 8 10 12 12 13 15 17 18 18 19 20 23 28 32 34 34 35 34 33 32 32 32 34 35
14 14 12 19 34 41 39 35 34 36 39 42 43 43 42 39 36 34 31 29 27 24 22 20 18 16 14 12 10 9 6 5 4 3 2 1 4 7 10 11 11 12 14 16 17 17 18 19 22 26 31 33 33 34 34 34 34 33 32 33 35 32
27 20 17 28 40 42 38 35 34 36 38 41 42 43 42 40 37 33 30 29 27 25 23 21 18 16 14 12 11 9 7 6 5 4 2 3 5 7 8 9 10 12 14 14 15 16 17 20 25 29 32 32 32 33 33 33 33 33 33 34 34 28
30 25 23 34 42 39 36 36 35 36 39 41 43 43 42 41 39 34 30 29 27 25 23 21 18 17 14 12 10 9 8 7 5 5 3 3 6 6 6 8 9 12 14 14 15 16 17 20 24 28 30 31 31 31 32 32 32 32 33 34 30 24
23 25 29 39 42 39 37 37 37 39 42 43 44 43 41 42 41 36 32 30 28 25 23 21 19 17 15 13 10 8 7 7 6 4 3 2 5 6 6 9 11 13 14 15 16 18 19 21 25 27 28 29 30 30 31 32 30 31 34 34 29 23
31 37 41 43 44 43 41 39 39 41 44 46 46 44 43 42 42 39 36 33 29 27 24 22 20 18 16 14 12 9 7 6 7 6 5 6 7 6 6 8 11 13 14 15 17 20 21 23 26 27 28 29 30 30 31 31 28 27 30 30 25 22
42 44 46 46 47 45 43 41 42 45 48 48 47 45 43 41 39 39 37 35 32 30 27 24 22 20 18 16 13 10 9 6 5 4 6 9 10 8 8 9 12 14 15 16 18 21 23 25 26 27 27 27 29 30 30 30 29 30 32 31 25 21
45 45 47 49 48 45 44 44 45 48 50 49 47 44 41 38 37 36 35 33 32 30 28 25 23 21 19 17 14 12 9 7 5 4 3 3 5 8 11 13 15 15 15 16 19 21 23 25 26 26 26 26 28 30 31 31 31 31 33 33 29 24
47 46 47 48 47 46 45 45 46 48 50 49 47 44 41 38 37 36 34 31 30 29 28 26 23 21 19 17 15 12 10 8 7 5 3 1 2 4 8 12 16 16 15 16 17 20 22 24 25 25 25 25 26 28 28 26 24 23 24 27 27 25
Wind_Direction
205 204 202 202 202 200 198 196 198 200 198 196 194 193 193 193 194 197 201 204 206 209 212 217 220 225 230 234 241 247 253 262 267 274 280 283 287 289 292 301 307 309 309 302 293 290 291 292 288 284 279 277 276 277 277 275 274 274 272 270 271 270
208 205 203 202 200 197 193 194 198 198 197 195 194 192 192 192 194 196 199 203 207 209 212 216 219 224 229 233 240 248 255 266 273 280 285 288 292 293 298 307 309 308 307 302 297 295 292 288 284 282 278 276 275 276 277 276 275 274 272 272 272 271
208 205 203 198 195 193 193 197 197 195 194 194 192 191 189 190 192 195 198 202 206 209 210 214 218 221 227 232 239 248 259 271 277 284 289 293 297 299 304 311 312 312 311 308 305 300 293 286 283 282 279 276 276 277 277 276 276 274 273 274 273 273
204 199 196 191 192 193 193 195 193 191 192 192 191 189 188 188 191 194 198 201 204 207 209 212 216 219 224 230 239 250 263 274 281 287 292 296 300 303 309 314 314 316 314 310 306 300 290 284 283 283 280 278 278 279 278 278 277 276 275 275 275 276
198 193 194 192 193 192 188 189 190 189 190 190 189 188 187 188 191 193 197 200 202 205 207 210 213 216 221 227 239 253 265 275 282 289 294 298 302 308 314 316 316 317 315 307 303 299 290 285 284 284 282 280 280 281 281 279 277 277 275 274 278 281
194 194 196 195 193 190 186 187 187 186 188 189 188 187 186 187 189 192 194 197 200 202 204 208 210 212 218 226 238 252 265 275 283 292 296 298 304 310 315 318 319 318 312 303 298 295 291 287 286 287 286 283 283 283 284 282 278 276 274 274 280 283
200 201 198 194 193 190 187 186 185 184 186 187 186 185 185 186 187 190 192 194 196 198 201 204 206 210 216 224 238 251 263 274 283 291 296 298 304 311 315 318 320 317 311 304 297 294 293 291 289 289 288 286 286 285 284 283 278 276 277 278 281 280
206 203 200 196 193 188 186 184 183 183 182 184 185 183 183 184 185 187 189 191 192 195 199 200 203 208 214 223 236 248 260 274 283 289 295 299 304 311 316 319 321 318 312 307 301 298 297 295 292 291 291 289 290 288 285 284 282 281 282 280 279 277
210 206 202 198 193 187 185 184 182 180 179 180 183 183 181 181 183 185 186 188 190 192 196 198 201 206 213 223 232 245 258 272 281 287 294 299 307 315 319 320 320 316 312 308 305 302 299 296 294 292 293 292 292 290 288 288 287 284 281 276 272 272
210 208 204 198 192 186 184 184 182 179 178 178 180 181 180 179 181 182 184 186 189 192 193 196 200 205 212 220 228 242 257 269 277 284 293 302 311 318 320 321 320 315 311 309 307 302 296 294 294 293 293 293 295 294 291 291 289 286 284 280 275 272
206 206 203 195 189 186 184 183 180 178 177 177 178 178 178 179 179 181 183 185 188 191 192 195 199 204 211 217 225 238 251 265 276 284 296 305 315 322 322 322 321 315 310 305 302 298 294 292 292 293 293 294 296 297 294 292 289 287 286 284 280 276
207 203 196 191 189 187 184 182 180 177 175 175 177 176 177 179 179 179 182 185 187 190 191 194 199 203 209 214 221 234 245 261 276 287 300 311 322 326 323 322 319 314 306 299 297 296 294 291 290 292 294 295 297 298 297 295 291 286 283 282 281 278
208 200 194 194 193 187 184 181 178 174 173 174 175 175 176 177 177 178 181 184 187 190 190 193 198 201 206 211 218 230 244 260 275 291 308 321 326 326 323 320 314 309 303 299 297 297 295 293 295 297 297 298 300 300 298 296 293 289 286 284 283 281
205 199 196 197 193 187 182 177 172 170 171 173 173 173 174 175 176 178 181 183 186 189 190 193 197 200 203 208 216 227 242 260 278 303 321 326 327 324 320 316 310 307 306 302 299 299 297 296 300 302 301 302 304 303 300 298 295 293 291 289 287 286
202 199 199 195 189 187 183 176 173 172 172 172 172 172 172 173 176 179 181 184 187 188 190 193 195 197 200 204 212 223 241 262 288 319 328 327 326 322 316 313 310 309 309 304 301 302 300 301 305 305 304 306 307 306 304 301 297 295 294 293 292 290
202 200 197 192 185 183 182 179 176 174 172 172 171 171 171 172 175 179 181 184 187 188 190 192 192 193 196 200 208 219 237 268 312 331 330 326 324 319 314 312 310 310 310 308 307 306 303 307 311 308 305 307 308 307 307 303 299 297 295 295 294 292
200 199 190 186 183 179 178 178 176 172 170 171 170 170 172 173 175 179 182 183 186 188 188 189 190 190 192 196 203 213 230 287 331 332 328 323 318 314 312 311 309 309 310 312 314 311 307 309 311 307 306 308 309 309 309 305 300 298 296 295 294 291
192 192 187 184 182 177 175 176 175 171 168 169 170 169 171 173 175 179 181 183 185 186 187 187 187 187 189 193 198 201 202 328 330 328 324 319 317 315 313 312 311 310 309 313 318 316 312 311 309 306 307 310 311 311 310 306 301 299 296 295 294 292
193 192 187 179 175 175 175 174 172 168 165 167 168 168 170 173 176 179 182 184 185 185 185 186 185 185 187 189 188 179 146 8 330 326 319 316 318 318 317 315 314 312 310 312 318 318 313 310 309 308 308 310 312 313 312 307 303 300 297 296 295 294
190 186 178 170 170 173 173 172 169 165 163 165 167 167 171 175 178 181 183 184 184 184 184 184 183 185 186 182 172 154 124 8 327 326 324 322 320 317 319 320 314 309 310 315 320 319 309 303 305 308 309 310 313 315 313 309 305 301 297 298 298 296
168 167 164 163 167 171 171 170 168 165 163 165 167 169 173 179 182 183 183 182 182 182 182 181 182 184 181 171 157 140 112 11 331 332 329 326 322 318 320 322 314 310 314 317 318 314 303 299 303 308 310 313 316 317 315 312 308 303 300 301 301 299
153 156 164 169 170 170 170 169 167 166 165 166 168 172 178 182 182 182 181 181 180 180 179 179 180 179 172 157 144 131 99 19 336 336 330 325 325 321 320 322 319 313 312 311 307 303 299 300 304 308 312 315 317 319 319 315 312 308 305 305 305 303
166 170 173 173 169 168 169 168 166 166 167 166 170 177 181 181 180 179 179 178 178 177 176 177 176 171 161 146 133 121 94 23 338 336 332 328 326 324 324 327 322 310 304 305 302 300 301 304 307 310 315 317 318 320 321 319 316 313 311 310 308 306
171 171 170 169 167 167 169 168 166 166 166 168 175 179 178 177 176 176 176 175 174 174 173 173 171 162 151 140 127 116 98 21 346 341 339 335 332 329 328 326 317 307 306 307 306 305 306 308 309 312 316 319 320 322 323 321 320 319 317 313 310 307
162 163 164 166 167 168 169 168 165 165 167 171 176 175 173 174 174 174 173 171 170 170 170 169 165 154 143 136 127 115 102 18 353 353 350 345 341 330 322 318 312 310 311 311 312 313 312 312 313 315 318 321 322 324 324 323 322 323 321 316 311 309
147 154 161 166 168 169 171 169 165 165 168 170 171 171 170 171 172 171 170 168 166 167 167 163 156 148 138 131 125 113 104 51 4 5 2 357 349 323 310 314 315 314 316 318 319 318 317 317 317 317 319 323 326 327 327 326 326 326 325 320 314 310
152 148 155 167 171 172 173 172 167 165 167 168 168 169 169 169 169 168 166 165 164 164 163 156 148 143 135 128 123 114 104 70 25 17 9 1 348 315 311 317 317 318 322 323 321 320 321 322 321 319 320 325 329 331 330 329 328 329 328 324 319 314
152 148 149 165 174 175 176 175 171 166 166 167 168 169 168 167 166 164 162 162 163 162 158 151 145 141 135 127 120 114 102 74 41 30 18 356 325 314 313 313 318 324 326 324 322 322 322 323 323 321 323 328 333 333 333 333 332 331 331 328 323 322
154 156 148 160 174 176 176 177 173 168 166 166 167 168 167 165 162 160 160 161 162 161 155 150 147 142 133 125 120 118 106 77 51 40 29 342 306 315 316 318 326 330 327 325 324 323 323 323 324 325 329 335 337 336 336 337 336 334 334 332 331 331
165 166 159 162 172 175 174 173 172 169 166 166 167 167 164 162 160 159 159 161 161 159 154 151 150 143 133 125 120 120 114 94 73 62 49 300 301 313 320 326 331 331 328 326 325 325 325 324 325 330 336 339 339 339 339 340 340 338 338 337 337 335
166 162 158 163 169 172 171 169 170 170 166 165 167 166 161 159 158 157 158 160 158 155 153 152 149 143 136 127 119 116 115 102 84 74 62 332 317 321 323 327 329 330 330 328 326 327 328 327 329 335 338 339 340 341 342 343 341 341 341 342 341 336
172 164 156 163 168 169 168 166 166 167 166 166 167 165 160 157 155 156 159 159 156 155 155 152 146 141 135 126 117 110 107 105 96 82 55 353 335 332 334 335 334 334 334 331 330 331 329 328 332 336 339 340 341 342 345 346 345 344 346 348 345 341
173 166 159 165 167 165 163 163 163 165 167 168 167 166 163 158 156 157 160 159 157 156 156 151 145 140 133 125 117 103 93 95 97 106 106 25 354 353 356 352 346 345 345 342 339 338 334 333 337 340 341 342 342 344 348 349 348 349 352 352 348 347
175 172 165 164 164 162 161 163 165 168 169 168 167 167 165 163 161 160 159 158 157 156 155 150 145 140 133 126 119 104 84 65 51 67 103 42 19 25 20 7 360 357 357 355 350 347 345 343 344 344 343 343 344 346 350 351 352 354 356 356 355 355
177 171 164 162 163 164 163 164 167 169 168 168 169 169 168 168 166 162 157 156 156 155 154 150 145 141 136 130 124 116 100 75 44 26 2 356 17 46 50 28 16 9 7 6 0 354 350 348 348 347 346 346 348 349 351 353 355 358 359 358 356 354
169 165 164 164 165 164 163 165 168 170 169 169 171 171 170 170 168 163 159 159 158 155 154 152 147 142 138 134 130 124 117 110 90 54 12 353 356 4 9 17 23 21 18 14 8 360 354 351 351 350 347 347 350 351 352 355 359 3 5 4 360 353
164 166 167 166 165 164 164 167 169 170 170 170 170 169 169 168 166 162 159 159 159 156 153 151 148 143 139 137 135 133 130 129 128 113 77 353 331 331 333 345 2 15 22 18 10 3 357 352 350 349 349 350 353 354 357 2 4 2 2 1 357 352
165 167 166 165 165 165 166 168 170 171 171 170 169 168 167 166 162 159 157 157 158 156 153 151 147 144 142 139 137 136 138 138 135 130 134 190 271 302 315 332 349 4 18 21 16 14 9 359 352 350 349 351 355 359 4 6 2 355 352 350 347 344